KIAH

Houston Intercontinental

Airport
ICAO code
KIAH
Summary
ICAO Region
NAM
ICAO Territory
Location

Houston, Texas,

Elevation
97 ft
Coordinates
29° 59' 4" N , 95° 20' 29" W
KCC
Airport LOS
Parallel Runway Operation
Airport WX
Tropical Revolving Storm
Metar
Observation
KIAH 301353Z 36015G21KT 10SM FEW020 09/02 A3023 RMK AO2 PK WND 01027/1341 SLP237 T00940017
Station
Houston, Houston Intercontinental Airport
Date/Time
2022-11-30 13:53:00
Wind direction
360°
Wind speed
15 kts
Lowest cloud amount
few clouds
Temperature
9.4°C
Dew point
1.7°C
Humidity
58%
Weather condition
n/a

Description

International airport serving Houston Texas.

Climatology

Humid “subtropical” climate (Köppen climate classification Cfa) - characterized by hot, humid summers and cool winters. Significant amounts of precipitation occur in all seasons in most areas. Winter rainfall (and sometimes snowfall) is associated with large storms that the westerlies steer from west to east. Most summer rainfall occurs during thunderstorms and occasional tropical storms (hurricanes).

Airport map

Aerial View

SKYbrary Partners:

Safety knowledge contributed by: